Date String (YYYY-MM-DD hh:mm:ss) UTC,Instrument flags,Ambient pressure (hPa),Sample flow (lpm),Bypass flow (lpm),Sample temperature (°C),Ambient temperature (°C),ASC tube jacket temperature (°C),LED temperature (°C),Box temperature (°C),Sample RH (%),Span deviation,Mass concentration (μg/m³),Mass concentration (μg/m³),Mass concentration (μg/m³)
DateTimeUTC,F1_M11,P_M11,Q1_M11,Q2_M11,T1_M11,T2_M11,T3_M11,T4_M11,T5_M11,U1_M11,ZSPAN_M11,X0_M11,X2_M11,X1_M11
2021-11-15 12:00:00,,0826.6,5.01,0.00,26.8,26.0,00.0,35.8,28.6,11.0,0000.0,0000.94,0000.48,0000.32
2021-11-15 12:01:00,,0826.6,5.01,0.00,26.8,26.0,00.0,35.8,28.6,10.9,0000.0,0000.90,0000.47,0000.33
2021-11-15 12:02:00,,0826.6,4.99,0.00,26.8,26.0,00.0,35.8,28.6,10.7,0000.0,0000.88,0000.46,0000.33
2021-11-15 12:03:00,,0826.5,5.01,0.00,26.8,26.0,00.0,35.8,28.6,11.0,0000.0,0000.88,0000.46,0000.33
2021-11-15 12:04:00,,0826.5,5.01,0.00,26.8,26.0,00.0,35.8,28.6,11.0,0000.0,0000.87,0000.47,0000.33
2021-11-15 12:05:00,,0826.5,4.99,0.00,26.8,26.0,00.0,35.8,28.6,11.0,0000.0,0000.71,0000.46,0000.33
2021-11-15 12:06:00,,0826.5,5.00,0.00,26.8,26.1,00.0,35.8,28.6,10.9,0000.0,0000.74,0000.48,0000.33
2021-11-15 12:07:00,,0826.5,5.00,0.00,26.8,26.1,00.0,35.8,28.6,10.9,0000.0,0000.77,0000.47,0000.33
2021-11-15 12:08:00,,0826.5,5.00,0.00,26.9,26.1,00.0,35.8,28.6,11.0,0000.0,0000.84,0000.49,0000.33
2021-11-15 12:09:00,,0826.5,5.00,0.00,26.9,26.1,00.0,35.8,28.7,11.1,0000.0,0001.00,0000.52,0000.33
2021-11-15 12:10:00,,0826.5,4.99,0.00,26.9,26.1,00.0,35.9,28.7,11.2,0000.0,0001.16,0000.53,0000.34
2021-11-15 12:11:00,,0826.5,4.99,0.00,26.9,26.1,00.0,35.9,28.7,11.2,0000.0,0001.21,0000.55,0000.34
2021-11-15 12:12:00,,0826.5,5.01,0.00,26.9,26.1,00.0,35.9,28.7,11.1,0000.0,0001.23,0000.55,0000.34
2021-11-15 12:13:00,,0826.5,5.00,0.00,26.9,26.1,00.0,35.9,28.6,11.2,0000.0,0001.36,0000.55,0000.34
2021-11-15 12:14:00,,0826.5,4.99,0.00,26.9,26.1,00.0,35.9,28.7,11.2,0000.0,0001.75,0000.55,0000.34
2021-11-15 12:15:00,,0826.5,4.99,0.00,26.9,26.1,00.0,35.9,28.7,11.2,0000.0,0001.75,0000.55,0000.34
2021-11-15 12:16:00,,0826.5,5.00,0.00,26.9,26.1,00.0,35.9,28.7,11.1,0000.0,0001.84,0000.58,0000.35
2021-11-15 12:17:00,,0826.5,5.00,0.00,26.9,26.2,00.0,35.9,28.7,10.9,0000.0,0001.84,0000.58,0000.36
2021-11-15 12:18:00,,0826.5,5.00,0.00,26.9,26.2,00.0,35.9,28.7,11.0,0000.0,0001.85,0000.60,0000.37
2021-11-15 12:19:00,,0826.5,5.00,0.00,26.9,26.2,00.0,35.9,28.7,11.2,0000.0,0001.77,0000.57,0000.37
2021-11-15 12:20:00,,0826.5,4.99,0.00,26.9,26.2,00.0,35.9,28.7,11.3,0000.0,0001.67,0000.55,0000.36
2021-11-15 12:21:00,,0826.5,5.00,0.00,26.9,26.2,00.0,35.9,28.7,11.3,0000.0,0001.56,0000.56,0000.36
2021-11-15 12:22:00,,0826.5,5.00,0.00,26.9,26.2,00.0,35.9,28.7,10.9,0000.0,0001.53,0000.54,0000.36
2021-11-15 12:23:00,,0826.5,5.00,0.00,26.9,26.2,00.0,35.9,28.7,10.9,0000.0,0001.51,0000.53,0000.36
2021-11-15 12:24:00,,0826.5,5.00,0.00,26.9,26.2,00.0,35.9,28.7,10.9,0000.0,0001.41,0000.54,0000.35
2021-11-15 12:25:00,,0826.5,4.99,0.00,26.9,26.2,00.0,35.9,28.8,10.8,0000.0,0001.04,0000.53,0000.35
2021-11-15 12:26:00,,0826.5,4.99,0.00,27.0,26.2,00.0,35.9,28.7,10.9,0000.0,0001.03,0000.52,0000.35
2021-11-15 12:27:00,,0826.5,5.00,0.00,27.0,26.2,00.0,35.9,28.8,11.2,0000.0,0000.93,0000.49,0000.34
2021-11-15 12:28:00,,0826.5,5.00,0.00,27.0,26.2,00.0,35.9,28.8,11.0,0000.0,0000.97,0000.50,0000.34
2021-11-15 12:29:00,,0826.5,5.01,0.00,27.0,26.2,00.0,35.9,28.7,10.4,0000.0,0001.02,0000.52,0000.35
2021-11-15 12:30:00,,0826.5,5.00,0.00,27.0,26.2,00.0,35.9,28.7,10.3,0000.0,0001.07,0000.53,0000.35
2021-11-15 12:31:00,,0826.5,5.00,0.00,27.0,26.2,00.0,35.9,28.7,09.8,0000.0,0001.03,0000.53,0000.34
2021-11-15 12:32:00,,0826.5,5.00,0.00,27.0,26.2,00.0,35.9,28.8,10.0,0000.0,0001.01,0000.53,0000.34
2021-11-15 12:33:00,,0826.5,5.00,0.00,27.0,26.2,00.0,35.9,28.8,10.3,0000.0,0001.06,0000.56,0000.34
2021-11-15 12:34:00,,0826.5,5.00,0.00,27.0,26.2,00.0,36.0,28.8,10.8,0000.0,0001.10,0000.57,0000.34
2021-11-15 12:35:00,,0826.6,5.01,0.00,27.0,26.2,00.0,36.0,28.8,11.2,0000.0,0001.05,0000.57,0000.34
2021-11-15 12:36:00,,0826.6,4.99,0.00,27.0,26.2,00.0,36.0,28.8,11.1,0000.0,0001.03,0000.58,0000.34
2021-11-15 12:37:00,,0826.6,5.00,0.00,27.0,26.2,00.0,36.0,28.8,10.6,0000.0,0001.04,0000.58,0000.34
2021-11-15 12:38:00,,0826.5,4.99,0.00,27.0,26.2,00.0,36.0,28.8,10.3,0000.0,0001.10,0000.59,0000.34
2021-11-15 12:39:00,,0826.5,5.01,0.00,27.0,26.2,00.0,35.9,28.7,09.6,0000.0,0001.70,0000.57,0000.32
2021-11-15 12:40:00,,0826.5,4.99,0.00,27.0,26.2,00.0,36.0,28.7,09.4,0000.0,0002.25,0000.55,0000.31
2021-11-15 12:41:00,,0826.5,5.00,0.00,27.0,26.2,00.0,36.0,28.7,09.4,0000.0,0002.19,0000.52,0000.30
2021-11-15 12:42:00,,0826.5,4.99,0.00,27.0,26.2,00.0,36.0,28.7,09.4,0000.0,0002.80,0000.52,0000.30
2021-11-15 12:43:00,,0826.5,5.00,0.00,27.0,26.2,00.0,36.0,28.8,09.7,0000.0,0003.82,0000.50,0000.29
2021-11-15 12:44:00,,0826.6,5.00,0.00,27.0,26.2,00.0,36.0,28.8,10.2,0000.0,0003.80,0000.46,0000.28
2021-11-15 12:45:00,,0826.5,5.00,0.00,27.0,26.2,00.0,36.0,28.8,10.8,0000.0,0003.81,0000.46,0000.29
2021-11-15 12:46:00,,0826.6,5.00,0.00,27.0,26.2,00.0,36.0,28.8,10.4,0000.0,0003.73,0000.43,0000.28
2021-11-15 12:47:00,,0826.5,4.99,0.00,27.0,26.2,00.0,36.0,28.8,09.7,0000.0,0003.73,0000.44,0000.28
2021-11-15 12:48:00,,0826.5,5.00,0.00,27.0,26.2,00.0,36.0,28.8,09.6,0000.0,0004.66,0000.43,0000.27
2021-11-15 12:49:00,,0826.5,5.00,0.00,27.0,26.3,00.0,36.0,28.8,09.7,0000.0,0004.99,0000.44,0000.27
2021-11-15 12:50:00,,0826.7,4.99,0.00,27.0,26.3,00.0,36.0,28.8,09.9,0000.0,0004.28,0000.45,0000.28
2021-11-15 12:51:00,,0826.6,5.01,0.00,27.0,26.3,00.0,36.0,28.8,10.0,0000.0,0004.14,0000.46,0000.28
2021-11-15 12:52:00,,0826.6,4.99,0.00,27.0,26.3,00.0,36.0,28.8,09.5,0000.0,0004.90,0000.47,0000.28
2021-11-15 12:53:00,,0826.6,4.99,0.00,27.1,26.3,00.0,36.0,28.8,09.5,0000.0,0004.14,0000.43,0000.28
2021-11-15 12:54:00,,0826.6,4.99,0.00,27.1,26.3,00.0,36.0,28.8,09.4,0000.0,0003.62,0000.43,0000.28
2021-11-15 12:55:00,,0826.6,5.01,0.00,27.1,26.3,00.0,36.0,28.8,09.5,0000.0,0004.33,0000.44,0000.28
2021-11-15 12:56:00,,0826.6,5.00,0.00,27.1,26.3,00.0,36.0,28.8,09.5,0000.0,0004.27,0000.42,0000.27
2021-11-15 12:57:00,,0826.7,4.99,0.00,27.0,26.3,00.0,36.0,28.8,09.5,0000.0,0004.30,0000.43,0000.28
2021-11-15 12:58:00,,0826.5,5.01,0.00,27.1,26.2,00.0,36.0,28.8,09.5,0000.0,0004.24,0000.41,0000.27
2021-11-15 12:59:00,,0826.5,4.98,0.00,27.1,26.2,00.0,36.0,28.8,09.7,0000.0,0003.36,0000.44,0000.27
